Weather History for Morris, MN

Change the Weather History Date:

Wednesday, February 19, 2014

  Actual Average Record
Temperature  
Mean Temperature 24 °F -  
Max Temperature 37 °F 26 °F 48 °F (2012)
Min Temperature 12 °F 10 °F -18 °F (2008)
Degree Days  
Heating Degree Days 40    
Moisture  
Dew Point 25 °F    
Average Humidity 85    
Maximum Humidity 100    
Minimum Humidity 75    
Precipitation  
Precipitation 0.00 in - - ()
Sea Level Pressure  
Sea Level Pressure 29.65 in    
Wind  
Wind Speed 9 mph (SSE)    
Max Wind Speed 23 mph    
Max Gust Speed 28 mph    
Visibility 9 miles    
Events Fog    
Averages and records for this station are not official NWS values.
T = Trace of Precipitation, MM = Missing Value Source: NWS Daily Summary

Daily Weather History Graph

Daily Weather History Graph

Search for Another Location

Airport:

Trip Planner

Search our weather history database for the weather conditions in past years. The results will help you decide how hot, cold, wet, or windy it might be!

Date:

Astronomy

Feb. 19, 2014 Rise Set
Actual Time 7:19 AM CST 5:56 PM CST
Civil Twilight 6:49 AM CST 6:27 PM CST
Nautical Twilight 6:14 AM CST 7:01 PM CST
Astronomical Twilight 5:40 AM CST 7:35 PM CST
Moon 11:08 PM CST (2/19) 9:10 AM CST (2/19)
Length of Visible Light 11h 37m
Length of Day
10h 37m
Waning Gibbous, 79% of the Moon is Illuminated
Feb 19
Waning Gibbous
Feb 22
Last Quarter
Mar 1
New
Mar 8
First Quarter
Mar 16
Full

Hourly Weather History & Observations

Time (CST) Temp. Windchill Dew Point Humidity Pressure Visibility Wind Dir Wind Speed Gust Speed Precip Events Conditions
12:17 AM 26.6 °F 19.1 °F 21.2 °F 80% 29.76 in 10.0 mi WSW 6.9 mph - N/A   Scattered Clouds
12:37 AM 26.6 °F 18.2 °F 21.2 °F 80% 29.77 in 10.0 mi West 8.1 mph - N/A   Scattered Clouds
12:57 AM 24.8 °F 16.9 °F 21.2 °F 86% 29.77 in 10.0 mi West 6.9 mph - N/A   Clear
1:17 AM 24.8 °F 16.9 °F 21.2 °F 86% 29.77 in 10.0 mi West 6.9 mph - N/A   Clear
1:37 AM 24.8 °F 16.1 °F 21.2 °F 86% 29.77 in 10.0 mi West 8.1 mph - N/A   Clear
1:57 AM 23.0 °F 15.8 °F 21.2 °F 93% 29.77 in 10.0 mi West 5.8 mph - N/A   Clear
2:17 AM 21.2 °F 12.6 °F 19.4 °F 93% 29.76 in 10.0 mi West 6.9 mph - N/A   Clear
2:37 AM 21.2 °F 12.6 °F 19.4 °F 93% 29.76 in 10.0 mi West 6.9 mph - N/A   Clear
2:57 AM 23.0 °F 15.8 °F 21.2 °F 93% 29.76 in 10.0 mi WNW 5.8 mph - N/A   Clear
3:17 AM 21.2 °F 13.6 °F 19.4 °F 93% 29.77 in 7.0 mi West 5.8 mph - N/A   Clear
3:37 AM 21.2 °F 14.9 °F 19.4 °F 93% 29.77 in 5.0 mi West 4.6 mph - N/A   Clear
3:57 AM 21.2 °F 13.6 °F 19.4 °F 93% 29.77 in 7.0 mi West 5.8 mph - N/A   Clear
4:17 AM 21.2 °F 14.9 °F 19.4 °F 93% 29.76 in 5.0 mi West 4.6 mph - N/A   Clear
4:37 AM 19.4 °F - 17.6 °F 93% 29.76 in 0.8 mi Calm Calm - N/A   Mist
4:57 AM 19.4 °F - 19.4 °F 100% 29.76 in 1.5 mi Calm Calm - N/A   Mist
5:17 AM 21.2 °F - 19.4 °F 93% 29.76 in 1.5 mi Calm Calm - N/A   Mist
5:37 AM 19.4 °F 14.3 °F 17.6 °F 93% 29.77 in 0.8 mi WSW 3.5 mph - N/A   Mist
5:57 AM 17.6 °F 12.3 °F 15.8 °F 93% 29.76 in 3.0 mi WSW 3.5 mph - N/A   Clear
6:17 AM 15.8 °F - 14.0 °F 93% 29.76 in 0.5 mi Calm Calm - N/A Fog Light Freezing Fog
6:37 AM 14.0 °F 6.5 °F 12.2 °F 93% 29.76 in 1.0 mi SSE 4.6 mph - N/A   Mist
6:57 AM 12.2 °F 4.3 °F 10.4 °F 92% 29.76 in 7.0 mi SSE 4.6 mph - N/A   Clear
7:17 AM 12.2 °F 2.9 °F 10.4 °F 92% 29.76 in 4.0 mi South 5.8 mph - N/A   Clear
7:37 AM 12.2 °F 1.7 °F 10.4 °F 92% 29.77 in 0.5 mi South 6.9 mph - N/A Fog Light Freezing Fog
7:57 AM 15.8 °F 7.2 °F 14.0 °F 93% 29.76 in 7.0 mi SSW 5.8 mph - N/A   Scattered Clouds
8:17 AM 19.4 °F 12.8 °F 17.6 °F 93% 29.75 in 10.0 mi South 4.6 mph - N/A   Clear
8:37 AM 21.2 °F 13.6 °F 19.4 °F 93% 29.76 in 10.0 mi South 5.8 mph - N/A   Clear
8:57 AM 24.8 °F 17.9 °F 21.2 °F 86% 29.75 in 10.0 mi South 5.8 mph - N/A   Clear
9:17 AM 24.8 °F 17.9 °F 23.0 °F 93% 29.75 in 10.0 mi SE 5.8 mph - N/A   Clear
9:37 AM 24.8 °F 16.1 °F 24.8 °F 100% 29.74 in 10.0 mi SSE 8.1 mph - N/A   Clear
9:57 AM 26.6 °F 17.5 °F 24.8 °F 93% 29.73 in 10.0 mi SSE 9.2 mph - N/A   Clear
10:17 AM 28.4 °F 20.4 °F 26.6 °F 93% 29.73 in 10.0 mi SSE 8.1 mph - N/A   Clear
10:37 AM 30.2 °F 21.9 °F 28.4 °F 93% 29.73 in 10.0 mi SE 9.2 mph - N/A   Clear
10:57 AM 30.2 °F 21.9 °F 26.6 °F 86% 29.72 in 10.0 mi SSE 9.2 mph - N/A   Clear
11:17 AM 30.2 °F 21.9 °F 26.6 °F 86% 29.71 in 10.0 mi SE 9.2 mph - N/A   Clear
11:37 AM 33.8 °F 26.4 °F 28.4 °F 81% 29.71 in 10.0 mi SSE 9.2 mph - N/A   Clear
11:57 AM 33.8 °F 25.3 °F 28.4 °F 81% 29.69 in 10.0 mi SSE 11.5 mph - N/A   Clear
12:17 PM 33.8 °F 25.3 °F 28.4 °F 81% 29.68 in 10.0 mi SE 11.5 mph - N/A   Clear
12:37 PM 33.8 °F 24.3 °F 28.4 °F 81% 29.66 in 10.0 mi SE 13.8 mph - N/A   Clear
12:57 PM 33.8 °F 24.3 °F 28.4 °F 81% 29.65 in 10.0 mi SE 13.8 mph - N/A   Clear
1:17 PM 35.6 °F 25.9 °F 28.4 °F 75% 29.63 in 10.0 mi SE 16.1 mph - N/A   Clear
1:37 PM 35.6 °F 26.2 °F 30.2 °F 81% 29.62 in 10.0 mi SE 15.0 mph - N/A   Clear
1:57 PM 35.6 °F 25.5 °F 28.4 °F 75% 29.61 in 10.0 mi SE 17.3 mph - N/A   Scattered Clouds
2:17 PM 35.6 °F 25.5 °F 30.2 °F 81% 29.60 in 10.0 mi SE 17.3 mph - N/A   Scattered Clouds
2:37 PM 35.6 °F 25.9 °F 30.2 °F 81% 29.58 in 10.0 mi SE 16.1 mph - N/A   Scattered Clouds
2:57 PM 35.6 °F 25.5 °F 30.2 °F 81% 29.58 in 10.0 mi SE 17.3 mph - N/A   Scattered Clouds
3:17 PM 35.6 °F 25.5 °F 30.2 °F 81% 29.57 in 10.0 mi SE 17.3 mph - N/A   Scattered Clouds
3:37 PM 35.6 °F 25.5 °F 30.2 °F 81% 29.57 in 10.0 mi SE 17.3 mph - N/A   Clear
3:57 PM 35.6 °F 25.5 °F 30.2 °F 81% 29.57 in 10.0 mi SE 17.3 mph - N/A   Clear
4:17 PM 37.4 °F 27.5 °F 30.2 °F 75% 29.56 in 10.0 mi SE 18.4 mph - N/A   Clear
4:37 PM 35.6 °F 25.2 °F 30.2 °F 81% 29.56 in 10.0 mi SE 18.4 mph - N/A   Clear
4:57 PM 35.6 °F 24.8 °F 30.2 °F 81% 29.54 in 10.0 mi SE 19.6 mph - N/A   Clear
5:17 PM 35.6 °F 24.8 °F 30.2 °F 81% 29.54 in 10.0 mi SE 19.6 mph - N/A   Clear
5:37 PM 35.6 °F 24.0 °F 30.2 °F 81% 29.53 in 10.0 mi SE 23.0 mph 26.5 mph N/A   Clear
5:57 PM 35.6 °F 25.5 °F 30.2 °F 81% 29.53 in 10.0 mi SE 17.3 mph - N/A   Clear
6:17 PM 35.6 °F 24.8 °F 30.2 °F 81% 29.52 in 10.0 mi SE 19.6 mph - N/A   Clear
6:37 PM 35.6 °F 24.2 °F 30.2 °F 81% 29.51 in 10.0 mi SE 21.9 mph - N/A   Clear
6:57 PM 35.6 °F 24.2 °F 30.2 °F 81% 29.51 in 10.0 mi SE 21.9 mph 27.6 mph N/A   Clear
7:17 PM 35.6 °F 24.0 °F 30.2 °F 81% 29.50 in 10.0 mi SE 23.0 mph - N/A   Clear
7:37 PM 35.6 °F 24.2 °F 30.2 °F 81% 29.50 in 10.0 mi SE 21.9 mph 25.3 mph N/A   Clear
7:57 PM 35.6 °F 24.8 °F 30.2 °F 81% 29.49 in 10.0 mi SE 19.6 mph - N/A   Clear
8:17 PM 35.6 °F 25.5 °F 30.2 °F 81% 29.49 in 10.0 mi SE 17.3 mph - N/A   Clear
8:37 PM 35.6 °F 25.2 °F 30.2 °F 81% 29.49 in 10.0 mi SE 18.4 mph - N/A   Clear
8:57 PM 35.6 °F 25.2 °F 30.2 °F 81% 29.49 in 10.0 mi SSE 18.4 mph - N/A   Clear
9:17 PM 35.6 °F 26.2 °F 30.2 °F 81% 29.50 in 10.0 mi SSE 15.0 mph - N/A   Clear
9:37 PM 35.6 °F 28.0 °F 28.4 °F 75% 29.52 in 10.0 mi South 10.4 mph - N/A   Clear
9:57 PM 35.6 °F 26.6 °F 28.4 °F 75% 29.51 in 10.0 mi South 13.8 mph - N/A   Clear
10:17 PM 35.6 °F 27.1 °F 28.4 °F 75% 29.51 in 10.0 mi South 12.7 mph - N/A   Clear
10:37 PM 35.6 °F 27.1 °F 28.4 °F 75% 29.51 in 10.0 mi SSE 12.7 mph - N/A   Clear
10:57 PM 33.8 °F 24.3 °F 28.4 °F 81% 29.51 in 10.0 mi South 13.8 mph - N/A   Clear
11:17 PM 35.6 °F 27.5 °F 28.4 °F 75% 29.52 in 10.0 mi South 11.5 mph - N/A   Clear
11:37 PM 33.8 °F 24.8 °F 28.4 °F 81% 29.52 in 10.0 mi South 12.7 mph - N/A   Clear
11:57 PM 33.8 °F 25.3 °F 28.4 °F 81% 29.52 in 10.0 mi South 11.5 mph - N/A   Clear